North Platte, NE (69101)

10:21 PM CST on February 09, 2016 (GMT -0600)
K0KDC North Platte | | Change Station
CLOSE
Current Station
Personal Weather Station
Location: North Platte, NE
Elevation: 2808 ft
Nearby Weather Stations

Elev 2808 ft 41.14 °N, 100.77 °W | Updated 1 minute ago

Partly Cloudy
Partly Cloudy
33.3 °F
Feels Like 33 °F
N
0.0
Wind Variable Wind from SSW
Gusts 1.0 mph

Today
High -- | Low -- °F
--% Chance of Precip.
Yesterday
High -- | Low -- °F
Precip. -- in
Pressure 30.20 in
Visibility 10.0 miles
Clouds Few 8000 ft
Windchill 33 °F
Dew Point 30 °F
Humidity 87%
Rainfall 0.00 in
Snow Depth Not available.
7:45 AM 6:09 PM
Waxing Crescent, 3% visible
METAR KLBF 100353Z AUTO 00000KT 10SM FEW080 01/M03 A3013 RMK AO2 SLP226 T00111028
Pressure 30.20 in
Visibility 10.0 miles
Clouds Few 8000 ft
Windchill 33 °F
Dew Point 30 °F
Humidity 87%
Rainfall 0.00 in
Snow Depth Not available.
7:45 AM 6:09 PM
Waxing Crescent, 3% visible
METAR KLBF 100353Z AUTO 00000KT 10SM FEW080 01/M03 A3013 RMK AO2 SLP226 T00111028

10-Day Weather Forecast

Almanac

Astronomy

Feb. 09, 2016 Rise Set
Actual Time
Civil Twilight
Nautical Twilight
Astronomical Twilight
Moon
Length of Visible Light
Length of Day
Tomorrow will be .
, % of the Moon is Illuminated

Today's Extremes

State Highs State Lows

Community

WunderPhotos

Upload Photos

1,891,799 photos uploaded!

WunderBlog® & News

Nearby

Air Quality

  Air Quality AQ Index Pollutant
Not available.

Snow Depth

Station Depth Elevation

Earthquake Activity

City Distance Mag. Time & Date
Minimum magnitude displayed is 2.5.

Coastal Water Temperatures

Place Temperature

Stations

Nearby Weather Stations

Station Location Temp. Windchill Dew Point Humidity Wind Precip. Elev Updated Type
                   

Watches & Warnings

There are currently no watches in effect.